Regional Weather Roundup
Issued by NWS

Home | Current Version | Previous Version | Text Only | Print | Product List | Glossary On
Versions: 1 2 3 4 5 6 7 8 9 10 11 12 13 14 15 16 17 18 19 20 21 22 23 24 25 26 27 28 29 30 31 32 33 34 35 36 37 38 39 40 41 42 43 44 45 46 47 48 49 50
000
ASUS45 KPSR 311910
RWRAZ

ARIZONA REGIONAL HOURLY WEATHER ROUNDUP
NATIONAL WEATHER SERVICE PHOENIX AZ
1200 PM MST SAT JAN 31 2015

NOTE: FAIR INDICATES FEW OR NO CLOUDS BELOW 12,000 FEET WITH NO
SIGNIFICANT WEATHER AND/OR OBSTRUCTIONS TO VISIBILITY.

AZZ001>003-036-312000-
NORTHWEST ARIZONA

CITY           SKY/WX    TMP DP  RH WIND       PRES   REMARKS
BULLHEAD CITY  CLOUDY    59  48  67 N21       29.92S
KINGMAN        CLOUDY    50  44  80 N10       29.93F
$$

AZZ004>008-015-016-018-312000-
NORTH CENTRAL ARIZONA

CITY           SKY/WX    TMP DP  RH WIND       PRES   REMARKS
GRAND CANYON   PTSUNNY   45  34  65 VRB3      29.94F
PRESCOTT       CLOUDY    48  38  68 VRB5      29.91F
FLAGSTAFF      CLOUDY    42  34  73 NE7       29.94S
PAYSON         PTSUNNY   48  41  76 CALM      29.93S
$$

AZZ009>014-017-312000-
NORTHEAST ARIZONA

CITY           SKY/WX    TMP DP  RH WIND       PRES   REMARKS
WINSLOW        CLOUDY    45  41  86 NW7       29.94S
SAINT JOHNS    CLOUDY    46  39  76 VRB3      29.90F
WINDOW ROCK    CLOUDY    39  33  79 CALM      29.92F
SHOW LOW       CLOUDY    41  36  81 N5        29.94F
$$

AZZ023-312000-
GREATER PHOENIX AREA

CITY           SKY/WX    TMP DP  RH WIND       PRES   REMARKS
PHOENIX        LGT RAIN  57  54  89 CALM      29.85S
BUCKEYE          N/A     59  59 100 CALM      29.86F
GLENDALE       PTSUNNY   61  54  77 CALM      29.87S
LUKE AFB       PTSUNNY   61  54  76 NE5       29.84F
DEER VALLEY    CLOUDY    59  51  75 CALM      29.85F
SCOTTSDALE     CLOUDY    59  51  75 CALM      29.87S
MESA-FALCON    CLOUDY    55  55 100 CALM      29.85F
MESA-GATEWAY   CLOUDY    55  52  88 CALM      29.88S
CHANDLER       CLOUDY    57  55  94 CALM      29.87S
$$

AZZ027-028-312000-
SOUTHWEST MARICOPA COUNTY AND PINAL COUNTY

CITY           SKY/WX    TMP DP  RH WIND       PRES   REMARKS
CASA GRANDE    CLOUDY    54  52  94 SW7       29.87S
GILA BEND      HVY RAIN  57  55  94 CALM      29.86S
$$

AZZ503-504-507>509-312000-
SOUTHEAST ARIZONA

CITY           SKY/WX    TMP DP  RH WIND       PRES   REMARKS
TUCSON         CLOUDY    55  49  80 NE5       29.89F
DAVIS-MONTHAN  CLOUDY    53  51  93 NE3       29.86F
RYAN FIELD       N/A     54  54 100 NE5       29.89
NOGALES        CLOUDY    53  46  77 S13       29.88F
SIERRA VISTA   CLOUDY    48  44  86 CALM      29.89F
DOUGLAS        CLOUDY    51  46  83 S10       29.90F
SAFFORD        LGT RAIN  52  47  83 E7        29.88F
$$

AZZ020-021-025-026-031-312000-
SOUTHWEST ARIZONA

CITY           SKY/WX    TMP DP  RH WIND       PRES   REMARKS
YUMA           PTSUNNY   67  49  52 NW9       29.88S
$$

CAZ031-033-041-043-047-048-061-312000-
SOUTHERN CALIFORNIA

CITY           SKY/WX    TMP DP  RH WIND       PRES   REMARKS
DOWNTOWN L.A.  SUNNY     64  53  67 CALM      29.92S
L.A. AIRPORT   MOSUNNY   64  54  69 SE3       29.93R
SAN DIEGO      PTSUNNY   63  52  67 W5        29.94S
BURBANK        SUNNY     62  52  69 S6        29.92R
ONTARIO        PTSUNNY   61  51  70 W5        29.92S
RIVERSIDE      MOSUNNY   62  51  67 VRB3      29.92S
PALM SPRINGS   CLOUDY    68  43  40 NE8       29.93R
EL CENTRO NAS  PTSUNNY   68  47  46 N7        29.89S
IMPERIAL       PTSUNNY   66  48  52 N7        29.88S
BLYTHE         CLOUDY    63  50  62 N13       29.89S
NEEDLES        CLOUDY    62  47  57 N12G21    29.91S
$$

NVZ020-UTZ003-312000-
SOUTHERN NEVADA-UTAH

CITY           SKY/WX    TMP DP  RH WIND       PRES   REMARKS
LAS VEGAS      PTSUNNY   59  41  51 N7        29.92S
SALT LAKE CITY MOSUNNY   42  30  62 NW14      30.05S
$$

NMZ009-TXZ055-312000-
NEW MEXICO-WEST TEXAS

CITY           SKY/WX    TMP DP  RH WIND       PRES   REMARKS
ALBUQUERQUE    CLOUDY    36  35  96 NW5       29.93F FOG     WCI  32
EL PASO        PTSUNNY   51  46  83 CALM      29.90F
$$


........................KEY........................
SKY/WX - SKY CONDITION/WEATHER
TMP    - TEMPERATURE IN FAHRENHEIT
DP     - DEW POINT IN FAHRENHEIT
RH     - RELATIVE HUMIDITY IN PERCENT
WIND   - DIRECTION AND SPEED IN MILES PER HOUR (MPH)
VRB    - VARIABLE WIND DIRECTION
PRES   - MEAN SEA LEVEL PRESSURE IN INCHES OF MERCURY
         F - FALLING PRESSURE   R - RISING PRESSURE
         S - STEADY PRESSURE
VSB    - VISIBILITY IN MILES
HX     - HEAT INDEX IN FAHRENHEIT
WCI    - WIND CHILL INDEX IN FAHRENHEIT
TC     - TEMPERATURE IN CELSIUS WHICH IS ALSO KNOWN AS
         TEMPERATURE IN CENTIGRADE
AFB    - AIR FORCE BASE
         LUKE AFB IS LUKE AIR FORCE BASE
         DAVIS-MONTHAN IS DAVIS-MONTHAN AIR FORCE BASE
NAS    - NAVAL AIR STATION
         EL CENTRO NAS IS EL CENTRO NAVAL AIR STATION
N/A    - NOT AVAILABLE


USA.gov is the U.S. government's official web portal to all federal, state and local government web resources and services.